FW6937 Weather Reports


Display with metric or nautical units.
time (UTC)temp
F
wind
direction
speed
MPH
gust
MPH
rain 1hr
in
rain 24hr
in
rain mn
in
humidity
%
barometer
mb
20260906103556 71 0 0.0 0.0 0.00 0.69 0.00 93 1013.0
20260906103106 71 0 0.0 0.0 0.00 0.69 0.00 93 1012.9
20260906102600 71 0 0.0 0.0 0.00 0.69 0.00 93 1012.8
20260906102057 71 0 0.0 0.0 0.00 0.69 0.00 93 1013.1
20260906101605 71 0 0.0 2.0 0.00 0.69 0.00 93 1013.2
20260906101057 71 0 0.0 2.0 0.00 0.69 0.00 93 1013.1
20260906100557 71 339 0.0 2.0 0.00 0.69 0.00 93 1013.1
20260906100106 71 0 0.0 0.0 0.00 0.69 0.00 93 1013.0
20260906095556 71 0 0.0 0.0 0.00 0.69 0.00 93 1013.0
20260906095057 71 0 0.0 0.0 0.00 0.69 0.00 93 1012.9
20260906094609 71 0 0.0 0.0 0.00 0.69 0.00 93 1012.9
20260906094056 71 0 0.0 0.0 0.00 0.69 0.00 93 1012.9
20260906093557 71 0 0.0 0.0 0.00 0.69 0.00 93 1012.9
20260906093105 71 0 0.0 0.0 0.00 0.69 0.00 93 1013.1
20260906092557 71 0 0.0 0.0 0.00 0.69 0.00 93 1013.3
20260906092055 71 0 0.0 0.0 0.00 0.69 0.00 93 1013.1
20260906091606 71 0 0.0 0.0 0.00 0.69 0.00 93 1013.0
20260906091056 71 0 0.0 0.0 0.00 0.69 0.00 93 1013.0
20260906090554 71 0 0.0 0.0 0.00 0.69 0.00 93 1013.0
20260906085554 71 0 0.0 0.0 0.00 0.69 0.00 93 1012.9
20260906085054 71 0 0.0 0.0 0.00 0.69 0.00 93 1012.9
20260906084606 71 0 0.0 0.0 0.00 0.69 0.00 93 1012.8
20260906084056 71 0 0.0 0.0 0.00 0.69 0.00 93 1012.9
20260906083555 71 0 0.0 0.0 0.00 0.69 0.00 93 1012.9
20260906083105 71 0 0.0 0.0 0.00 0.69 0.00 93 1012.8
20260906082555 71 0 0.0 0.0 0.00 0.69 0.00 93 1012.9
20260906082055 71 0 0.0 0.0 0.00 0.69 0.00 93 1012.9
20260906081603 71 0 0.0 0.0 0.00 0.69 0.00 93 1012.9
20260906081055 71 0 0.0 0.0 0.00 0.69 0.00 93 1012.8
20260906080555 71 0 0.0 0.0 0.00 0.69 0.00 93 1012.8
20260906075554 71 0 0.0 0.0 0.00 0.69 0.00 93 1012.9
20260906075055 71 0 0.0 0.0 0.00 0.69 0.00 93 1012.8
20260906074607 71 0 0.0 0.0 0.00 0.69 0.00 93 1012.8
20260906074055 71 0 0.0 0.0 0.00 0.69 0.00 93 1012.9
20260906073555 71 0 0.0 0.0 0.00 0.69 0.00 93 1012.8
20260906073106 71 0 0.0 0.0 0.00 0.69 0.00 93 1012.8
20260906072555 71 0 0.0 0.0 0.00 0.69 0.00 93 1012.8
20260906072054 71 0 0.0 0.0 0.00 0.69 0.00 92 1012.9
20260906071604 71 0 0.0 0.0 0.00 0.69 0.00 93 1013.0
20260906071055 71 0 0.0 0.0 0.00 0.69 0.00 93 1013.0
20260906070555 71 0 0.0 0.0 0.00 0.69 0.00 93 1013.1
20260906070104 71 0 0.0 0.0 0.00 0.69 0.00 93 1013.1
20260906065556 71 0 0.0 0.0 0.00 0.69 0.00 93 1013.1
20260906065058 71 0 0.0 0.0 0.00 0.69 0.00 93 1013.1
20260906064601 71 0 0.0 0.0 0.00 0.69 0.00 93 1013.0
20260906064055 71 0 0.0 0.0 0.00 0.69 0.00 92 1013.2
20260906063556 71 0 0.0 0.0 0.00 0.69 0.00 92 1013.1
20260906063104 71 0 0.0 1.0 0.00 0.69 0.00 92 1013.1
20260906062554 71 0 0.0 1.0 0.00 0.69 0.00 92 1013.1
20260906062055 71 0 0.0 0.0 0.00 0.69 0.00 92 1013.1
20260906061604 71 0 0.0 1.0 0.00 0.69 0.00 92 1013.2
20260906061056 71 0 0.0 1.0 0.00 0.69 0.00 92 1013.2
20260906060555 71 0 1.0 1.0 0.00 0.69 0.00 92 1013.3
20260906060104 72 13 0.0 1.0 0.00 0.69 0.00 92 1013.4
20260906055556 72 0 0.0 1.0 0.00 0.69 0.00 92 1013.5
20260906055057 72 0 0.0 1.0 0.00 0.69 0.00 92 1013.7
20260906054607 72 0 0.0 1.0 0.00 0.69 0.00 92 1013.7
20260906054056 72 13 1.0 1.0 0.00 0.69 0.00 93 1013.7
20260906053556 72 0 0.0 2.0 0.00 0.69 0.00 92 1013.6
20260906053110 72 8 1.0 3.0 0.00 0.69 0.00 92 1013.8
20260906052555 72 354 2.0 3.0 0.00 0.69 0.00 93 1013.8
20260906052056 72 358 2.0 3.0 0.00 0.69 0.00 93 1014.0
20260906051605 72 18 1.0 3.0 0.00 0.69 0.00 92 1013.9
20260906051056 72 18 1.0 3.0 0.00 0.69 0.00 92 1014.0
20260906050600 72 360 0.0 1.0 0.00 0.69 0.00 92 1014.1
20260906050108 72 0 0.0 1.0 0.00 0.69 0.00 92 1014.2
20260906045555 72 0 0.0 2.0 0.00 0.69 0.00 92 1014.3
20260906045055 72 1 1.0 3.0 0.00 0.69 0.00 92 1014.3
20260906044604 73 352 1.0 4.0 0.00 0.69 0.00 92 1014.3
20260906044055 73 8 2.0 4.0 0.00 0.69 0.00 92 1014.3
20260906043556 73 4 2.0 4.0 0.00 0.69 0.00 92 1014.3
20260906043107 73 346 2.0 3.0 0.00 0.69 0.00 92 1014.0
20260906042555 73 23 1.0 3.0 0.00 0.69 0.00 92 1014.1
20260906042056 73 19 2.0 3.0 0.00 0.69 0.00 92 1014.0
20260906041603 74 1 0.0 2.0 0.00 0.69 0.00 93 1014.1
20260906041055 74 1 0.0 2.0 0.00 0.69 0.00 93 1014.0
20260906040600 74 359 0.0 2.0 0.00 0.69 0.00 93 1014.0
20260906040110 74 0 0.0 2.0 0.00 0.69 0.00 93 1014.0
20260906035556 74 358 1.0 2.0 0.00 0.69 0.69 93 1013.9
20260906035058 74 359 0.0 1.0 0.00 0.69 0.69 93 1014.0
20260906034607 74 0 0.0 1.0 0.00 0.69 0.69 93 1014.0
20260906034056 74 0 0.0 1.0 0.00 0.69 0.69 92 1014.1
20260906033555 74 359 1.0 1.0 0.00 0.69 0.69 93 1014.1
20260906033112 74 358 0.0 3.0 0.00 0.69 0.69 92 1014.1
20260906032555 74 358 1.0 3.0 0.00 0.69 0.69 93 1014.1
20260906032055 74 5 1.0 2.0 0.00 0.69 0.69 92 1014.2
20260906031600 74 5 1.0 2.0 0.00 0.69 0.69 92 1014.2
20260906031058 74 0 0.0 1.0 0.00 0.69 0.69 92 1014.3
20260906030556 74 0 0.0 1.0 0.00 0.69 0.69 93 1014.2
20260906030104 74 0 0.0 1.0 0.00 0.69 0.69 92 1014.1
20260906025555 74 15 1.0 2.0 0.00 0.69 0.69 92 1014.0
20260906025056 74 15 1.0 2.0 0.00 0.69 0.69 92 1014.1
20260906024603 74 4 2.0 2.0 0.00 0.69 0.69 92 1014.2
20260906024058 74 0 0.0 0.0 0.00 0.69 0.69 92 1014.3
20260906023555 74 0 0.0 0.0 0.00 0.69 0.69 92 1014.3
20260906023102 74 0 0.0 0.0 0.00 0.69 0.69 92 1014.4
20260906022557 74 0 0.0 0.0 0.00 0.69 0.69 92 1014.4
20260906022059 74 0 0.0 0.0 0.00 0.69 0.69 92 1014.6
20260906021606 74 0 0.0 0.0 0.00 0.69 0.69 92 1014.6
20260906021056 74 0 0.0 0.0 0.00 0.69 0.69 92 1014.6
20260906020556 74 0 0.0 0.0 0.00 0.69 0.69 92 1014.5
20260906020109 74 0 0.0 0.0 0.00 0.69 0.69 92 1014.3
20260906015555 74 0 0.0 0.0 0.00 0.69 0.69 92 1014.2
20260906015056 74 0 0.0 0.0 0.00 0.69 0.69 92 1014.2
20260906014603 74 0 0.0 0.0 0.00 0.69 0.69 92 1014.2
20260906014055 74 0 0.0 0.0 0.00 0.69 0.69 92 1014.3
20260906013559 74 0 0.0 0.0 0.00 0.69 0.69 92 1014.2
20260906013111 74 0 0.0 1.0 0.00 0.69 0.69 92 1014.0
20260906012559 74 0 0.0 1.0 0.00 0.69 0.69 92 1013.9
20260906012056 73 0 0.0 1.0 0.00 0.69 0.69 92 1013.9
20260906011608 73 31 0.0 1.0 0.00 0.69 0.69 92 1013.9
20260906011055 73 0 0.0 1.0 0.00 0.69 0.69 92 1013.7
20260906010555 73 31 1.0 2.0 0.00 0.69 0.69 91 1013.6
20260906010107 73 32 1.0 2.0 0.00 0.69 0.69 91 1013.6
20260906005555 73 0 0.0 2.0 0.00 0.69 0.69 91 1013.5
20260906005056 73 0 0.0 2.0 0.00 0.69 0.69 91 1013.5
20260906004611 73 3 1.0 2.0 0.00 0.69 0.69 91 1013.5
20260906004055 73 10 2.0 2.0 0.00 0.69 0.69 91 1013.3
20260906003558 73 0 0.0 0.0 0.00 0.69 0.69 91 1013.1
20260906003107 73 0 0.0 1.0 0.00 0.69 0.69 91 1013.1
20260906002558 73 0 0.0 1.0 0.00 0.69 0.69 91 1013.3
20260906002059 73 18 1.0 1.0 0.00 0.69 0.69 91 1013.2
20260906001607 73 0 0.0 0.0 0.00 0.69 0.69 91 1012.9
20260906001058 73 0 0.0 0.0 0.00 0.69 0.69 91 1012.7
20260906000558 73 0 0.0 1.0 0.00 0.69 0.69 91 1012.4
20260906000109 73 0 0.0 1.0 0.00 0.69 0.69 91 1012.3
20260905235558 73 0 0.0 1.0 0.00 0.69 0.69 91 1012.3
20260905235058 74 0 0.0 1.0 0.00 0.69 0.69 91 1012.4
20260905234604 74 0 0.0 2.0 0.00 0.69 0.69 91 1012.5
20260905234059 74 0 1.0 2.0 0.00 0.69 0.69 91 1012.6
20260905233559 74 332 0.0 3.0 0.00 0.69 0.69 91 1012.8
20260905233103 73 1 1.0 3.0 0.00 0.69 0.69 91 1012.9
20260905232555 73 31 2.0 3.0 0.00 0.69 0.69 91 1013.0
20260905232058 73 354 2.0 3.0 0.00 0.69 0.69 91 1013.0
20260905231604 73 7 0.0 3.0 0.00 0.69 0.69 91 1013.0
20260905231058 73 354 1.0 6.0 0.00 0.69 0.69 91 1013.0
20260905230559 73 4 2.0 6.0 0.00 0.69 0.69 91 1012.8
20260905230105 73 358 4.0 6.0 0.00 0.69 0.69 91 1012.7
20260905225558 73 344 3.0 5.0 0.00 0.69 0.69 92 1012.8
20260905225058 73 13 2.0 4.0 0.00 0.69 0.69 91 1013.0
20260905224602 73 3 2.0 3.0 0.00 0.69 0.69 91 1012.9
20260905224059 73 15 0.0 2.0 0.00 0.69 0.69 91 1012.5
20260905223558 73 136 0.0 2.0 0.02 0.69 0.69 91 1012.6
20260905223106 73 235 1.0 2.0 0.11 0.69 0.69 91 1012.5
20260905222559 73 356 0.0 2.0 0.26 0.69 0.69 90 1012.4
20260905222058 73 9 0.0 2.0 0.37 0.69 0.69 90 1012.5
20260905221605 73 5 1.0 2.0 0.45 0.69 0.69 90 1012.8
20260905221058 72 56 0.0 2.0 0.60 0.69 0.69 90 1012.7
20260905220559 72 249 0.0 2.0 0.69 0.69 0.69 89 1012.9
20260905220106 72 0 0.0 2.0 0.69 0.69 0.69 88 1012.8
20260905215559 73 0 0.0 2.0 0.69 0.69 0.69 88 1013.3
20260905215059 73 11 0.0 2.0 0.69 0.69 0.69 88 1013.4
20260905214603 73 11 1.0 2.0 0.69 0.69 0.69 87 1013.5
20260905214058 73 74 0.0 4.0 0.69 0.69 0.69 86 1013.6
20260905213557 73 0 0.0 4.0 0.67 0.67 0.67 85 1013.8
20260905213108 74 4 1.0 4.0 0.58 0.58 0.58 84 1013.9
20260905212556 75 201 2.0 5.0 0.43 0.43 0.43 82 1014.0
20260905212054 76 143 2.0 8.0 0.32 0.32 0.32 81 1014.0
20260905211603 78 83 3.0 8.0 0.24 0.24 0.24 76 1013.8
20260905211056 83 113 4.0 8.0 0.08 0.08 0.08 69 1013.7
20260905210556 89 171 2.0 4.0 0.00 0.00 0.00 64 1013.1
20260905210123 92 103 1.0 7.0 0.00 0.00 0.00 56 1012.6
20260905205555 94 63 2.0 8.0 0.00 0.00 0.00 52 1012.3
20260905205057 95 51 4.0 8.0 0.00 0.00 0.00 51 1012.2
20260905204604 96 113 3.0 8.0 0.00 0.00 0.00 48 1012.1
20260905204055 96 221 3.0 5.0 0.00 0.00 0.00 51 1011.9
20260905203555 97 218 2.0 4.0 0.00 0.00 0.00 48 1012.0
20260905203106 97 257 1.0 4.0 0.00 0.00 0.00 47 1012.1
20260905202555 97 252 2.0 5.0 0.00 0.00 0.00 49 1012.1
20260905202056 97 250 2.0 5.0 0.00 0.00 0.00 50 1012.2
20260905201624 97 241 2.0 4.0 0.00 0.00 0.00 50 1012.2
20260905201055 97 39 1.0 4.0 0.00 0.00 0.00 49 1012.3
20260905200555 97 259 1.0 4.0 0.00 0.00 0.00 51 1012.1
20260905200117 98 237 2.0 5.0 0.00 0.00 0.00 51 1012.3
20260905195556 98 39 2.0 5.0 0.00 0.00 0.00 49 1012.4
20260905195055 98 288 2.0 4.0 0.00 0.00 0.00 50 1012.5
20260905194616 97 36 1.0 4.0 0.00 0.00 0.00 51 1012.4
20260905194055 97 219 2.0 4.0 0.00 0.00 0.00 51 1012.3
20260905193555 97 236 1.0 4.0 0.00 0.00 0.00 51 1012.4
20260905193111 97 13 2.0 5.0 0.00 0.00 0.00 50 1012.5
20260905192557 97 54 2.0 6.0 0.00 0.00 0.00 51 1012.6
20260905192057 96 243 2.0 6.0 0.00 0.00 0.00 51 1012.8
20260905191609 96 226 4.0 7.0 0.00 0.00 0.00 51 1012.9
20260905191056 96 238 4.0 7.0 0.00 0.00 0.00 51 1012.9
20260905190555 96 212 3.0 4.0 0.00 0.00 0.00 50 1012.9
20260905190119 96 245 2.0 3.0 0.00 0.00 0.00 51 1012.9
20260905185556 96 305 1.0 4.0 0.00 0.00 0.00 53 1013.0
20260905185055 96 155 1.0 5.0 0.00 0.00 0.00 54 1013.1
20260905184624 95 201 2.0 5.0 0.00 0.00 0.00 55 1013.1
20260905184055 95 234 3.0 5.0 0.00 0.00 0.00 54 1013.0
20260905183555 95 246 2.0 4.0 0.00 0.00 0.00 55 1012.9
20260905183109 95 239 2.0 3.0 0.00 0.00 0.00 58 1013.1
20260905182556 94 242 2.0 5.0 0.00 0.00 0.00 55 1013.2
20260905182055 94 231 2.0 5.0 0.00 0.00 0.00 57 1013.4
20260905181607 94 254 2.0 3.0 0.00 0.00 0.00 57 1013.5
20260905181058 93 231 2.0 3.0 0.00 0.00 0.00 59 1013.5
20260905180558 93 243 1.0 2.0 0.00 0.00 0.00 59 1013.5
20260905180104 93 193 0.0 2.0 0.00 0.00 0.00 58 1013.6
20260905175558 93 207 1.0 5.0 0.00 0.00 0.00 58 1013.7
20260905175059 92 221 2.0 5.0 0.00 0.00 0.00 60 1013.7
20260905174608 92 236 2.0 4.0 0.00 0.00 0.00 60 1013.7
20260905174058 93 226 1.0 2.0 0.00 0.00 0.00 59 1013.8
20260905173557 93 239 0.0 3.0 0.00 0.00 0.00 57 1013.9
20260905173113 93 0 0.0 3.0 0.00 0.00 0.00 57 1014.0
20260905172558 94 245 2.0 3.0 0.00 0.00 0.00 57 1014.1
20260905172100 94 246 1.0 2.0 0.00 0.00 0.00 57 1014.1
20260905171624 94 333 1.0 4.0 0.00 0.00 0.00 56 1014.3
20260905171058 94 300 1.0 4.0 0.00 0.00 0.00 56 1014.2
20260905170558 95 352 0.0 3.0 0.00 0.00 0.00 56 1014.3
20260905170113 94 281 0.0 3.0 0.00 0.00 0.00 59 1014.3
20260905165558 94 250 0.0 4.0 0.00 0.00 0.00 60 1014.3
20260905165058 94 229 1.0 4.0 0.00 0.00 0.00 58 1014.3
20260905164605 94 213 1.0 4.0 0.00 0.00 0.00 56 1014.5
20260905164058 94 167 0.0 4.0 0.00 0.00 0.00 58 1014.5
20260905163558 94 347 1.0 4.0 0.00 0.00 0.00 58 1014.7
20260905163114 94 294 0.0 5.0 0.00 0.00 0.00 59 1014.9
20260905162600 94 253 1.0 5.0 0.00 0.00 0.00 58 1014.9
20260905162058 94 0 2.0 5.0 0.00 0.00 0.00 58 1014.9
20260905161618 93 53 1.0 5.0 0.00 0.00 0.00 59 1015.0
20260905161057 93 74 0.0 5.0 0.00 0.00 0.00 61 1015.0
20260905160555 93 240 1.0 5.0 0.00 0.00 0.00 60 1015.1
20260905160107 92 250 1.0 3.0 0.00 0.00 0.00 61 1015.1
20260905155602 92 11 1.0 4.0 0.00 0.00 0.00 61 1015.1
20260905155058 91 39 1.0 4.0 0.00 0.00 0.00 62 1015.2
20260905154618 91 325 0.0 3.0 0.00 0.00 0.00 63 1015.3
20260905154058 90 243 1.0 3.0 0.00 0.00 0.00 63 1015.3
20260905153558 90 252 0.0 3.0 0.00 0.00 0.00 63 1015.4
20260905153114 90 272 0.0 3.0 0.00 0.00 0.00 64 1015.4
20260905152558 90 248 0.0 2.0 0.00 0.00 0.00 63 1015.4
20260905152059 90 238 0.0 3.0 0.00 0.00 0.00 63 1015.4
20260905151616 89 260 1.0 3.0 0.00 0.00 0.00 64 1015.5
20260905151055 88 253 2.0 3.0 0.00 0.00 0.00 64 1015.6
20260905150555 89 231 0.0 3.0 0.00 0.00 0.00 65 1015.5
20260905150107 88 261 1.0 3.0 0.00 0.00 0.00 65 1015.6
20260905145601 88 278 0.0 3.0 0.00 0.00 0.00 66 1015.6
20260905145056 87 339 1.0 3.0 0.00 0.00 0.00 67 1015.6
20260905144603 87 252 0.0 3.0 0.00 0.00 0.00 68 1015.6
20260905144100 86 251 1.0 3.0 0.00 0.00 0.00 70 1015.7
20260905143558 85 252 2.0 3.0 0.00 0.00 0.00 70 1015.8
20260905143104 85 244 1.0 3.0 0.00 0.00 0.00 71 1015.8
20260905142601 85 251 1.0 3.0 0.00 0.00 0.00 72 1015.8
20260905142100 84 239 1.0 3.0 0.00 0.00 0.00 72 1015.8
20260905141604 84 242 2.0 3.0 0.00 0.00 0.00 73 1015.9
20260905141055 84 246 1.0 2.0 0.00 0.00 0.00 74 1015.9
20260905140559 83 240 1.0 2.0 0.00 0.00 0.00 74 1015.9
20260905135558 82 0 1.0 2.0 0.00 0.00 0.00 76 1015.9
20260905135059 82 246 0.0 2.0 0.00 0.00 0.00 77 1015.9
20260905134603 81 240 1.0 2.0 0.00 0.00 0.00 77 1015.8
20260905134101 81 240 0.0 1.0 0.00 0.00 0.00 79 1015.9
20260905133557 80 0 0.0 1.0 0.00 0.00 0.00 80 1015.9
20260905133101 80 240 0.0 2.0 0.00 0.00 0.00 80 1015.9
20260905132558 79 240 1.0 2.0 0.00 0.00 0.00 81 1016.0
20260905132056 79 243 1.0 2.0 0.00 0.00 0.00 82 1016.0
20260905131607 78 242 0.0 2.0 0.00 0.00 0.00 83 1016.1
20260905131102 78 241 1.0 2.0 0.00 0.00 0.00 84 1016.2
20260905130558 77 237 1.0 2.0 0.00 0.00 0.00 85 1016.1
20260905125558 76 0 0.0 1.0 0.00 0.00 0.00 87 1016.0
20260905125058 76 4 0.0 0.0 0.00 0.00 0.00 89 1016.0
20260905124605 76 4 0.0 0.0 0.00 0.00 0.00 89 1016.0
20260905124055 75 0 0.0 0.0 0.00 0.00 0.00 90 1016.0
20260905123558 75 0 0.0 0.0 0.00 0.00 0.00 90 1016.2
20260905123104 75 0 0.0 0.0 0.00 0.00 0.00 91 1016.0
20260905122555 75 0 0.0 1.0 0.00 0.00 0.00 91 1016.0
20260905122102 74 0 0.0 1.0 0.00 0.00 0.00 91 1015.9
20260905121604 74 0 0.0 1.0 0.00 0.00 0.00 91 1015.8
20260905121055 74 0 0.0 0.0 0.00 0.00 0.00 91 1015.9
20260905120600 74 0 0.0 0.0 0.00 0.00 0.00 91 1015.8
20260905120105 74 0 0.0 0.0 0.00 0.00 0.00 91 1015.7
20260905115556 74 0 0.0 0.0 0.00 0.00 0.00 91 1015.7
20260905115058 74 0 0.0 0.0 0.00 0.00 0.00 91 1015.7
20260905114605 74 0 0.0 0.0 0.00 0.00 0.00 91 1015.5
20260905114100 74 0 0.0 0.0 0.00 0.00 0.00 90 1015.5
20260905113556 74 0 0.0 0.0 0.00 0.00 0.00 91 1015.5
20260905113101 74 0 0.0 0.0 0.00 0.00 0.00 90 1015.5
20260905112558 74 0 0.0 0.0 0.00 0.00 0.00 90 1015.4
20260905112059 74 0 0.0 0.0 0.00 0.00 0.00 90 1015.4
20260905111646 74 0 0.0 0.0 0.00 0.00 0.00 90 1015.3
20260905111057 74 0 0.0 0.0 0.00 0.00 0.00 90 1015.2
20260905110557 74 0 0.0 0.0 0.00 0.00 0.00 90 1015.3
20260905110104 74 0 0.0 1.0 0.00 0.00 0.00 90 1015.3
20260905105556 74 0 0.0 1.0 0.00 0.00 0.00 90 1015.3
20260905105057 74 4 0.0 1.0 0.00 0.00 0.00 90 1015.3
20260905104607 74 0 0.0 2.0 0.00 0.00 0.00 90 1015.2
20260905104055 74 0 1.0 2.0 0.00 0.00 0.00 90 1015.1